Home > Weather > Bimbo > Past weeks

Flag for Central African Republic Past Weather in Bimbo, Central African Republic — Yesterday and Last 2 Weeks

Now
84 °F

Scattered clouds.


Feels Like: 92 °F
Forecast: 73 / 83 °F
Wind: 2 mph from Northwest

Location: Bangui Airport

Current Time: May 28, 2016 at 10:57:54 AM

Latest Report: May 28, 2016 at 10:00 AM


Visibility: N/A

Pressure: 29.98 "Hg

Humidity: 74%

Dew Point: 75 °F

Location of BimboLocation

Past Weather in Bimbo — Graph

°F

Bimbo Temperature Yesterday

Maximum temperature yesterday: 93 °F (at 3:00 PM)
Minimum temperature yesterday: 75 °F (at 3:00 AM)
Average temperature yesterday: 82 °F

High & Low Weather Summary for the Past Weeks

 TemperatureHumidityPressure
High95 °F (May 14, 3:00 PM)100% (May 13, 2:00 PM)30.12 "Hg (May 13, 2:00 PM)
Low70 °F (May 19, 10:00 PM)50% (May 14, 3:00 PM)29.74 "Hg (May 14, 4:00 PM)
Average80 °F83%29.91 "Hg
* Reported May 13 9:00 AM — May 28 9:00 AM, Bimbo, Weather by CustomWeather, © 2016

Note: Actual official high and low records may vary slightly from our data, if they occured in-between our weather recording intervals... More about our weather records

Advertising

Bimbo Weather History for the Previous 24 Hours

Scroll right to see more
 ConditionsComfort  
Time TempWeatherWind HumidityBarometerVisibility
9:00 AM
Sat, May 28
81 °FScattered clouds.No wind84%30.01 "Hg5 mi
8:00 AM79 °FScattered clouds.2 mph89%29.98 "Hg5 mi
7:00 AM79 °FPassing clouds.No wind94%29.95 "Hg5 mi
6:00 AM77 °FPassing clouds.No wind94%29.95 "HgN/A
5:00 AM77 °FClear.No wind94%29.92 "Hg10 mi
4:00 AM79 °FClear.2 mph89%29.89 "Hg10 mi
3:00 AM77 °FClear.2 mph94%29.92 "Hg10 mi
2:00 AM77 °FClear.5 mph94%29.89 "Hg10 mi
1:00 AM79 °FClear.2 mph94%29.92 "Hg10 mi
12:00 AM79 °FClear.No wind94%29.92 "Hg10 mi
11:00 PM
Fri, May 27
79 °FClear.No wind89%29.95 "Hg4 mi
10:00 PM81 °FPassing clouds.3 mph89%29.95 "Hg4 mi
9:00 PM81 °FPassing clouds.2 mph89%29.92 "Hg4 mi
8:00 PM81 °FPassing clouds.2 mph84%29.89 "HgN/A
7:00 PM82 °FThunderstorms. Passing clouds.1 mph79%29.86 "HgN/A
6:00 PM86 °FPassing clouds.3 mph66%29.83 "HgN/A
5:00 PM90 °FPassing clouds.3 mph59%29.83 "HgN/A
4:00 PM93 °FPassing clouds.2 mph53%29.83 "HgN/A
3:00 PM93 °FPassing clouds.7 mph53%29.86 "HgN/A
2:00 PM91 °FPassing clouds.2 mph56%29.86 "HgN/A
1:00 PM91 °FPassing clouds.3 mph56%29.89 "HgN/A
12:00 PM90 °FPassing clouds.7 mph55%29.92 "HgN/A
11:00 AM86 °FPassing clouds.5 mph66%29.95 "HgN/A
10:00 AM82 °FPassing clouds.7 mph74%29.98 "HgN/A
Weather by CustomWeather, © 2016

See weather overviewHow to use our weather pages